Other Public Products
Issued by NWS Grand Forks, ND

Home | Current Version | Previous Version | Text Only | Print | Product List | Glossary Off
Versions: 1 2 3 4 5 6 7 8 9 10 11 12 13 14 15 16 17 18 19 20 21 22 23 24 25 26 27 28 29 30 31 32 33 34 35 36 37 38 39 40 41 42 43 44 45 46 47 48 49 50

273
FPUS83 KFGF 272110
OPUFGF
PRAIRIE TO PINES WEATHER ROUNDUP
NATIONAL WEATHER SERVICE EASTERN NORTH DAKOTA/GRAND FORKS ND
400 PM CDT SAT AUG 27 2016

 **SATELLITE DATA USED TO AUGMENT SKY COVER AT AUTOMATED STATIONS**
 *****  WEATHER ACROSS EASTERN NORTH DAKOTA  *****

CITY           SKY/WX    TMP DP  RH WIND       PRES   REMARKS
GRAND FORKS    LGT RAIN  68  60  75 S9        29.90R
GRAND FORKS AF TSTM      63  59  88 S12       29.89F
GRAND CITY NWS   N/A     66 N/A N/A S6          N/A
BUXTON           N/A     68  64  86 E13         N/A
DEVILS LAKE    NOT AVBL
FARGO          CLOUDY    73  61  65 S14       29.92S
WAHPETON ARPT  CLOUDY    73  55  53 S15G22    29.93F
$$

 *****  WEATHER ACROSS CENTRAL AND WESTERN NORTH DAKOTA  *****

CITY           SKY/WX    TMP DP  RH WIND       PRES   REMARKS
JAMESTOWN      MOSUNNY   75  58  55 S8        29.89S
BISMARCK       SUNNY     79  49  34 MISG      29.89F
MINOT          MOSUNNY   78  46  32 S14       29.86F
MINOT AFB      SUNNY     78  44  30 VRB3      29.85F
GARRISON         N/A     78  50  37 VRB7      29.88F
WILLISTON      SUNNY     79  42  26 VRB3      29.83F
DICKINSON      MOSUNNY   78  40  25 MISG      29.86F
HETTINGER      MOSUNNY   79  45  29 S12       29.91F
$$

 *****  OTHER OBSERVATIONS NORTHEAST NORTH DAKOTA  *****

CITY           SKY/WX    TMP DP  RH WIND       PRES   REMARKS
WALHALLA       NOT AVBL
LANGDON        FAIR      77  50  38 SW9G20    29.89S
CAVALIER       FAIR      61  57  88 S5        29.88S
GRAFTON        FAIR      66  61  82 SE14G20   29.90R THUNDER
CANDO          NOT AVBL
FORT TOTTEN      N/A     77  53  43 W5        29.95S
ROLLA          FAIR      72  48  43 W8        29.90S
RUGBY          FAIR      75  50  41 SW6       29.87F
 ***** THE ABOVE OBSERVATIONS ARE NON NWS ARE NOT QUALITY
        CONTROLLED AND MAY MIS-REPORT RAIN FOR SNOW...
$$

 *****  OTHER OBSERVATIONS SOUTHEAST NORTH DAKOTA *****

CITY           SKY/WX    TMP DP  RH WIND       PRES   REMARKS
COOPERSTOWN    NOT AVBL
VALLEY CITY    FAIR      75  64  69 S13       29.92F
OAKES            N/A    N/A N/A N/A MISG        N/A
GWINNER        FAIR      75  63  64 SW14      29.93S
SHEYENNE NWR     N/A     76  61  58 SW12      29.95S
BUFFALO          N/A     74  58  57 S12         N/A
WYNDMERE       NOT AVBL
 ***** THE ABOVE OBSERVATIONS ARE NON NWS ARE NOT QUALITY
       CONTROLLED AND MAY MIS-REPORT RAIN FOR SNOW...
$$

  *****  WEATHER ACROSS NORTHERN MINNESOTA  *****

CITY           SKY/WX    TMP DP  RH WIND       PRES   REMARKS
FLAG ISLAND    DRIZZLE   61  57  88 CALM      29.94S
WARROAD        CLOUDY    61  55  82 CALM      29.95F
ROSEAU         CLOUDY    59  54  82 S5        29.94S
HALLOCK        MOSUNNY   66  59  77 S6        29.91R
THF RVR FALLS  CLOUDY    62  57  83 S13       29.94F
HALSTAD          N/A     65  61  85 SE10        N/A
FOSSTON        CLOUDY    55  54  94 SE6       29.94F
BAUDETTE       CLOUDY    59  56  89 VRB5      29.94F
WASKISH        LGT RAIN  57  55  94 S3        29.97F
CROOKSTON      MOSUNNY   66  57  72 S14       29.92F
$$
  *****  WEATHER ACROSS CENTRAL AND WEST MINNESOTA  *****

CITY           SKY/WX    TMP DP  RH WIND       PRES   REMARKS
BEMIDJI        CLOUDY    58  55  89 NW10      30.00F
PARK RAPIDS    CLOUDY    71  55  56 S14       29.96F
WADENA         CLOUDY    70  55  60 S8        29.99S
DETROIT LAKES  CLOUDY    66  55  68 S7        29.98S
MOORHEAD       PTSUNNY   70  57  64 SE12G17   29.94S
FERGUS FALLS   CLOUDY    70  57  64 N10       29.98R
ELBOW LAKE     FAIR      71  60  67 S12       29.98S
MORRIS MN      PTSUNNY   72  59  64 S8        29.97S
STAPLES        CLOUDY    66  55  68 S8        30.00R
WHEATON        SUNNY     73  63  68 SE8       29.96F
$$
  *****  WEATHER ELSEWHERE ACROSS MINNESOTA  *****

CITY           SKY/WX    TMP DP  RH WIND       PRES   REMARKS
DULUTH         PTSUNNY   64  58  80 SE8       30.03F
INTRNTL FALLS  CLOUDY    61  58  90 SE6       29.99F
ELY            CLOUDY    64  52  63 SE7       30.04F
CLOQUET        CLOUDY    64  57  77 E6        30.02S
BRAINERD       CLOUDY    67  57  70 S8        30.00S
HIBBING        CLOUDY    65  55  70 SE5       30.01S
ALEXANDRIA     CLOUDY    68  57  68 S7        30.01R
SAINT CLOUD    CLOUDY    62  61  96 SE5       30.00S FOG
MINNEAPOLIS    CLOUDY    66  61  84 SE6       30.00S
$$

  *****  WEATHER ACROSS SOUTH DAKOTA  *****

CITY           SKY/WX    TMP DP  RH WIND       PRES   REMARKS
SIOUX FALLS    MOSUNNY   76  64  66 S12       29.98F
BROOKINGS      MOSUNNY   73  61  65 SW8       29.98F
WATERTOWN      SUNNY     74  61  63 S10       29.96F
HURON          SUNNY     80  62  54 VRB7      29.92F
SISSETON         N/A     76  62  62 S9        29.92
ABERDEEN       SUNNY     79  61  53 S14       29.92F
MITCHELL       SUNNY     82  61  48 S9        29.94F
PIERRE         SUNNY     81  55  40 S9        29.90F
MOBRIDGE       SUNNY     82  51  34 MISG      29.88F
RAPID CITY     SUNNY     81  54  39 SE15G23   29.90F
$$

  *****  SOME WEATHER IN NEARBY STATES *****

CITY           SKY/WX    TMP DP  RH WIND       PRES   REMARKS
GLASGOW MT     SUNNY     82  42  24 S8        29.74F
GREAT FALLS MT CLOUDY    81  35  19 SW17G29   29.77S
CHEYENNE WY    MOSUNNY   77  31  18 SW5       30.11F
SCOTTSBLUFF NE SUNNY     85  49  28 E12G17    29.98F
OMAHA NE       MOSUNNY   84  65  52 SW8       29.99F
DES MOINES IA  MOSUNNY   80  69  69 VRB3      30.00S
DAVENPORT IA   SUNNY     83  68  60 SW8       30.01S
CHICAGO IL     PTSUNNY   81  71  71 SW8       30.01F
EAU CLAIRE WI  CLOUDY    65  63  93 SE6       30.01S
LA CROSSE WI   CLOUDY    71  65  81 S3        30.00S
$$

  *****  SOME NATIONAL WEATHER *****

CITY           SKY/WX    TMP DP  RH WIND       PRES   REMARKS
LA GUARDIA NY  PTSUNNY   87  57  35 SE10      30.16S
RALEIGH NC     CLOUDY    85  74  69 W3        30.07F HX  92
ATLANTA GA     MOSUNNY   91  69  48 E13       30.05F HX  96
NEW ORLEANS LA PTSUNNY   90  75  61 E12G18    29.91F HX 100
OKLAHOMA CITY  LGT RAIN  84  66  54 W5        29.97F
ALBUQUERQUE NM PTSUNNY   83  41  22 VRB6      30.10F
SALT LAKE CITY MOSUNNY   88  24  10 NW14G21   30.02F
LOS ANGELES CA SUNNY     73  56  54 W13       29.98F
BOISE ID       SUNNY     88  32  13 N5        29.92F
SEATTLE WA     CLOUDY    67  55  65 SW14      29.91R
$$

*** WEATHER ACROSS MANITOBA...SASKATCHEWAN AND ONTARIO ***
                ***ONTARIO***

CITY           SKY/WX    TMP DP  RH WIND       PRES   REMARKS
GERALDTON      PTSUNNY   73  54  49 SE6       30.06F
THUNDER BAY    CLOUDY    64  54  68 SE7       30.06F
SIOUX LOOKOUT  LGT RAIN  68  55  64 SW9       29.98S
TORONTO        PTSUNNY   79  57  47 E5        30.16S
BIG TROUT LK   MOSUNNY   73  55  53 SE3       29.91F
PICKLE LAKE    PTSUNNY   73  48  40 SW10      29.97F
DRYDEN         PTSUNNY   63  59  88 W10       29.99R
KENORA         LGT RAIN  59  57  94 SE5       29.97F
$$
                *** MANITOBA***

CITY           SKY/WX    TMP DP  RH WIND       PRES   REMARKS
BRANDON        MOSUNNY   72  52  49 W9        29.86S
DAUPHIN        PTSUNNY   73  57  56 W8        29.83F
ISLAND LAKE    TSTM      68  61  77 SE5       29.84F
PILOT MOUND      N/A     73  46  38 W8          N/A
THE PAS        PTSUNNY   63  55  77 VRB7      29.82S
THOMPSON       PTSUNNY   68  54  60 CALM      29.83S
WINNIPEG       PTSUNNY   72  59  64 S14       29.88R
LYNN LAKE      SUNNY     70  41  35 MISG      29.80S
CHURCHILL      PTSUNNY   66  46  48 S10G17    29.86R
GILLAM         PTSUNNY   66  55  68 NE6       29.86S
$$
                ***SASKATCHEWAN***

CITY           SKY/WX    TMP DP  RH WIND       PRES   REMARKS
ESTEVAN        MOSUNNY   77  43  29 S10       29.83F
KINDERSLEY     NOT AVBL
LLOYDMINSTER   CLOUDY    70  54  56 S15       29.58S
PRINCE ALBERT  PTSUNNY   70  52  52 S13G22    29.72F
REGINA         PTSUNNY   75  45  33 S16G22    29.77F
YORKTON        MOSUNNY   72  46  40 SW3       29.82F   C1F1C2F2C3F3C4F4C5F5C6F6C7F7C8F8C9F9CaFaCbFbCcFcCdFdCe!



USA.gov is the U.S. government's official web portal to all federal, state and local government web resources and services.